{"data":{"norad_id":60131,"epoch":"2026-05-25T01:22:25.542912Z","epoch_age_seconds":66751,"freshness":"FRESH","line1":"1 60131U 24118U   26145.05724008  .00000494  00000+0  27666-4 0  9998","line2":"2 60131  53.1613  31.6418 0001124  94.8259 265.2871 15.31703611107399","mean_motion":15.31703611,"eccentricity":0.0001124,"inclination_deg":53.1613,"raan_deg":31.6418,"arg_perigee_deg":94.8259,"mean_anomaly_deg":265.2871,"bstar":2.7666e-5,"rev_number":10739,"period_min":94.012966324462,"perigee_km":469.95941847933,"apogee_km":471.49904360806,"semimajor_km":6848.8662310437,"source":"CELESTRAK","updated_at":"2026-05-25T13:38:19.169526Z"}}